Pensacola, FL

7:44 AM CST on December 03, 2016 (GMT -0600)
Pensacola Regional

Weather History for KPNS - October, 2013

Change the Weather History Date:

Thursday, October 31, 2013

  Actual Average Record
Temperature  
Mean Temperature 78 °F 65 °F  
Max Temperature 83 °F 75 °F 89 °F (2016)
Min Temperature 72 °F 56 °F 32 °F (1993)
Degree Days  
Heating Degree Days 0 3  
Month to date heating degree days 15 35  
Since 1 July heating degree days 15 38  
Cooling Degree Days 13 3  
Month to date cooling degree days 231 180  
Year to date cooling degree days 2689 2550  
Growing Degree Days 27 (Base 50)    
Moisture  
Dew Point 69 °F    
Average Humidity 75    
Maximum Humidity 84    
Minimum Humidity 65    
Precipitation  
Precipitation T in 0.17 in 1.19 in (1897)
Month to date precipitation 1.89 5.24  
Year to date precipitation 65.55 55.99  
Sea Level Pressure  
Sea Level Pressure 29.98 in    
Wind  
Wind Speed 12 mph (South)    
Max Wind Speed 21 mph    
Max Gust Speed 25 mph    
Visibility 10 miles    
Events      
T = Trace of Precipitation, MM = Missing Value Source: NWS Daily Summary

Daily Weather History Graph

Daily Weather History Graph

Search for Another Location

Airport or City:

Trip Planner

Search our weather history database for the weather conditions in past years. The results will help you decide how hot, cold, wet, or windy it might be!

Date:

Astronomy

Oct. 31, 2013 Rise Set
Actual Time 7:02 AM CDT 6:01 PM CDT
Civil Twilight 6:37 AM CDT 6:26 PM CDT
Nautical Twilight 6:09 AM CDT 6:54 PM CDT
Astronomical Twilight 5:41 AM CDT 7:22 PM CDT
Moon 4:03 AM CDT (10/31) 4:09 PM CDT (10/31)
Length of Visible Light 11h 48m
Length of Day
10h 58m
Waning Crescent, 10% of the Moon is Illuminated
Oct 31
Waning Crescent
Nov 3
New
Nov 9
First Quarter
Nov 17
Full
Nov 25
Last Quarter

Hourly Weather History & Observations

Time (CDT) Temp. Heat Index Dew Point Humidity Pressure Visibility Wind Dir Wind Speed Gust Speed Precip Events Conditions
12:53 AM 72.0 °F - 66.9 °F 84% 30.09 in 10.0 mi SE 8.1 mph - N/A   Clear
1:53 AM 73.0 °F - 66.9 °F 81% 30.08 in 10.0 mi SE 8.1 mph - N/A   Clear
2:53 AM 73.0 °F - 66.9 °F 81% 30.06 in 10.0 mi SE 8.1 mph - N/A   Clear
3:53 AM 73.0 °F - 66.9 °F 81% 30.05 in 10.0 mi SSE 6.9 mph - N/A   Clear
4:53 AM 73.0 °F - 66.9 °F 81% 30.04 in 10.0 mi SSE 10.4 mph - N/A   Clear
5:53 AM 73.9 °F - 68.0 °F 82% 30.04 in 10.0 mi SSE 10.4 mph - N/A   Scattered Clouds
6:53 AM 73.9 °F - 68.0 °F 82% 30.03 in 10.0 mi SSE 11.5 mph - N/A   Clear
7:53 AM 75.0 °F - 66.9 °F 76% 30.02 in 10.0 mi SSE 9.2 mph - N/A   Clear
8:53 AM 79.0 °F - 69.1 °F 72% 30.02 in 10.0 mi South 16.1 mph - N/A   Partly Cloudy
9:53 AM 79.0 °F - 70.0 °F 74% 30.04 in 10.0 mi SSE 13.8 mph - N/A   Clear
10:53 AM 81.0 °F 84.1 °F 69.1 °F 67% 30.03 in 10.0 mi South 15.0 mph - N/A   Scattered Clouds
11:53 AM 81.0 °F 84.1 °F 69.1 °F 67% 30.00 in 10.0 mi South 15.0 mph 23.0 mph N/A   Partly Cloudy
12:53 PM 82.0 °F 85.5 °F 69.1 °F 65% 29.98 in 10.0 mi South 17.3 mph 25.3 mph N/A   Scattered Clouds
1:53 PM 82.0 °F 85.5 °F 69.1 °F 65% 29.96 in 10.0 mi South 16.1 mph - N/A   Scattered Clouds
2:53 PM 81.0 °F 84.1 °F 69.1 °F 67% 29.93 in 10.0 mi South 16.1 mph - N/A   Mostly Cloudy
3:53 PM 79.0 °F - 71.1 °F 77% 29.91 in 10.0 mi South 12.7 mph - N/A   Scattered Clouds
4:53 PM 79.0 °F - 71.1 °F 77% 29.91 in 10.0 mi South 11.5 mph - N/A   Mostly Cloudy
5:53 PM 77.0 °F - 68.0 °F 74% 29.90 in 10.0 mi SSW 11.5 mph - N/A   Clear
6:53 PM 77.0 °F - 69.1 °F 76% 29.91 in 10.0 mi South 9.2 mph - N/A   Mostly Cloudy
7:53 PM 77.0 °F - 69.1 °F 76% 29.92 in 10.0 mi SSW 6.9 mph - N/A   Clear
8:53 PM 77.0 °F - 68.0 °F 74% 29.93 in 10.0 mi SSW 10.4 mph - N/A   Scattered Clouds
9:53 PM 77.0 °F - 70.0 °F 79% 29.92 in 10.0 mi South 12.7 mph - N/A   Partly Cloudy
10:53 PM 77.0 °F - 71.1 °F 82% 29.91 in 10.0 mi South 11.5 mph - N/A   Clear
11:53 PM 77.0 °F - 72.0 °F 84% 29.90 in 10.0 mi SSW 11.5 mph - 0.00 in   Mostly Cloudy